Location: Luz Observatory
(34.5000°N, 117.2833°W)
Time: 12:38:00
(UTC-07:00)

Hubble Space Telescope - Visible Passes

Search period start: 21 August 2017 00:00
Search period end: 31 August 2017 00:00
Orbit: 538 x 542 km, 28.5° (Epoch: 20 August)

Date Brightness Start Highest point End Pass type
(mag) Time Alt. Az. Time Alt. Az. Time Alt. Az.
21 Aug 1.6 05:04:40 24° SW 05:06:21 34° S 05:10:07 10° ESE visible
22 Aug 1.6 04:55:16 29° SW 04:56:12 32° S 04:59:54 10° ESE visible
23 Aug 1.7 04:45:56 30° SSW 04:46:02 30° S 04:49:40 10° SE visible
24 Aug 2.1 04:36:42 25° S 04:36:42 25° S 04:39:23 10° SE visible
25 Aug 2.8 04:27:36 17° SSE 04:27:36 17° SSE 04:29:02 10° SE visible
26 Aug 3.4 04:18:35 10° SSE 04:18:35 10° SSE 04:18:37 10° SSE visible
30 Aug 2.9 20:39:12 10° SSW 20:40:21 13° S 20:40:21 13° S visible
